Jackson, KY

12:39 PM EST on November 23, 2017 (GMT -0500)
Carroll

Weather History for KJKL - October, 2013

Change the Weather History Date:

Saturday, October 19, 2013

  Actual Average Record
Temperature  
Mean Temperature 49 °F 57 °F  
Max Temperature 58 °F 67 °F 87 °F (2016)
Min Temperature 40 °F 47 °F 28 °F (1992)
Degree Days  
Heating Degree Days 16 8  
Month to date heating degree days 63 124  
Since 1 July heating degree days 93 176  
Cooling Degree Days 0 1  
Month to date cooling degree days 42 25  
Year to date cooling degree days 1068 1146  
Moisture  
Dew Point 44 °F    
Average Humidity 84    
Maximum Humidity 96    
Minimum Humidity 72    
Precipitation  
Precipitation 0.03 in 0.10 in 1.88 in (2011)
Month to date precipitation 1.22 1.89  
Year to date precipitation 45.71 38.90  
Snow  
Snow 0.00 in 0.00 in T in (1989)
Month to date snowfall 0.0 0.0  
Since 1 July snowfall 0.0 0.0  
Since 1 September snowfall 0.0 0.0  
Snow Depth 0.00 in    
Sea Level Pressure  
Sea Level Pressure 29.94 in    
Wind  
Wind Speed 3 mph (West)    
Max Wind Speed 13 mph    
Max Gust Speed 23 mph    
Visibility 9 miles    
Events Rain    
T = Trace of Precipitation, MM = Missing Value Source: NWS Daily Summary

Daily Weather History Graph

Daily Weather History Graph

Search for Another Location

Airport or City:

Trip Planner

Search our weather history database for the weather conditions in past years. The results will help you decide how hot, cold, wet, or windy it might be!

Date:

Astronomy

Oct. 19, 2013 Rise Set
Actual Time 7:45 AM EDT 6:50 PM EDT
Civil Twilight 7:19 AM EDT 7:16 PM EDT
Nautical Twilight 6:48 AM EDT 7:47 PM EDT
Astronomical Twilight 6:18 AM EDT 8:17 PM EDT
Moon 7:18 PM EDT (10/19) 8:20 AM EDT (10/19)
Length of Visible Light 11h 57m
Length of Day
11h 04m
Waxing Gibbous, 99% of the Moon is Illuminated
Oct 19
Waxing Gibbous
Oct 26
Last Quarter
Nov 3
New
Nov 10
First Quarter
Nov 17
Full

Hourly Weather History & Observations

Time (EDT) Temp. Windchill Dew Point Humidity Pressure Visibility Wind Dir Wind Speed Gust Speed Precip Events Conditions
12:53 AM 46.0 °F - 43.0 °F 89% 29.99 in 10.0 mi Calm Calm - N/A   Clear
1:53 AM 46.9 °F - 42.1 °F 83% 29.96 in 10.0 mi Calm Calm - N/A   Clear
2:53 AM 45.0 °F - 42.1 °F 90% 29.96 in 10.0 mi Calm Calm - N/A   Clear
3:53 AM 45.0 °F - 41.0 °F 86% 29.94 in 9.0 mi Calm Calm - N/A   Clear
4:53 AM 45.0 °F - 42.1 °F 90% 29.93 in 10.0 mi Calm Calm - N/A   Clear
5:53 AM 43.0 °F - 41.0 °F 93% 29.93 in 7.0 mi Calm Calm - N/A   Clear
6:53 AM 45.0 °F - 42.1 °F 90% 29.93 in 10.0 mi Calm Calm - N/A   Partly Cloudy
7:53 AM 45.0 °F 43.5 °F 42.1 °F 90% 29.89 in 10.0 mi South 3.5 mph - N/A   Overcast
8:53 AM 46.0 °F - 43.0 °F 89% 29.90 in 10.0 mi Calm Calm - N/A   Overcast
9:53 AM 48.0 °F - 44.1 °F 86% 29.90 in 10.0 mi Calm Calm - N/A   Mostly Cloudy
10:53 AM 48.9 °F - 45.0 °F 86% 29.88 in 10.0 mi Variable 3.5 mph - N/A   Mostly Cloudy
11:53 AM 51.1 °F - 46.0 °F 83% 29.89 in 10.0 mi Calm Calm - N/A   Mostly Cloudy
12:53 PM 55.9 °F - 48.0 °F 75% 29.88 in 10.0 mi Variable 3.5 mph - N/A   Overcast
1:53 PM 55.9 °F - 46.0 °F 69% 29.88 in 10.0 mi Variable 3.5 mph - N/A   Overcast
2:14 PM 53.6 °F - 48.2 °F 82% 29.89 in 2.5 mi Variable 5.8 mph - 0.00 in Rain Light Rain
2:33 PM 51.8 °F - 48.2 °F 88% 29.90 in 2.5 mi West 8.1 mph - 0.02 in Rain Light Rain
2:40 PM 51.8 °F - 48.2 °F 88% 29.90 in 7.0 mi Variable 3.5 mph - 0.02 in Rain Light Rain
2:53 PM 52.0 °F - 50.0 °F 93% 29.90 in 10.0 mi Variable 3.5 mph - 0.02 in   Overcast
3:40 PM 51.8 °F - 50.0 °F 94% 29.90 in 5.0 mi Variable 6.9 mph - 0.01 in Rain Light Rain
3:53 PM 52.0 °F - 50.0 °F 93% 29.91 in 7.0 mi Variable 4.6 mph - 0.01 in Rain Light Rain
4:15 PM 51.8 °F - 50.0 °F 94% 29.91 in 9.0 mi Variable 3.5 mph - 0.00 in   Overcast
4:22 PM 51.8 °F - 50.0 °F 94% 29.92 in 10.0 mi Variable 4.6 mph - 0.00 in   Overcast
4:53 PM 51.1 °F - 48.0 °F 89% 29.93 in 10.0 mi WNW 12.7 mph 20.7 mph 0.00 in Rain Light Rain
5:38 PM 48.2 °F - 44.6 °F 87% 29.96 in 10.0 mi WNW 8.1 mph 17.3 mph 0.00 in   Overcast
5:53 PM 48.0 °F - 43.0 °F 83% 29.97 in 10.0 mi WNW 9.2 mph - 0.00 in   Overcast
6:03 PM 48.2 °F - 42.8 °F 82% 29.97 in 10.0 mi WNW 6.9 mph - N/A   Overcast
6:14 PM 48.2 °F - 42.8 °F 82% 29.97 in 10.0 mi WNW 6.9 mph 16.1 mph N/A   Overcast
6:53 PM 46.9 °F - 42.1 °F 83% 29.99 in 10.0 mi WNW 6.9 mph - N/A   Overcast
7:53 PM 46.0 °F 44.8 °F 42.1 °F 86% 30.00 in 10.0 mi WSW 3.5 mph - N/A   Mostly Cloudy
8:53 PM 46.9 °F - 42.1 °F 83% 30.01 in 10.0 mi Variable 4.6 mph - N/A   Overcast
9:53 PM 44.1 °F - 39.9 °F 85% 30.03 in 10.0 mi Calm Calm - N/A   Clear
10:53 PM 43.0 °F 41.3 °F 39.9 °F 89% 30.04 in 10.0 mi Variable 3.5 mph - N/A   Clear
11:53 PM 42.1 °F - 39.0 °F 89% 30.05 in 10.0 mi Calm Calm - N/A   Clear